Weather History for KTYS - July, 2012

Change the Weather History Date:

Sunday, July 22, 2012

  Actual Average Record
Temperature  
Mean Temperature 82 °F 79 °F  
Max Temperature 90 °F 88 °F 100 °F (1952)
Min Temperature 73 °F 69 °F 57 °F (1902)
Degree Days  
Heating Degree Days 0 0  
Month to date heating degree days 0 0  
Since 1 June heating degree days 3 4  
Since 1 July heating degree days 0 0  
Cooling Degree Days 17 14  
Month to date cooling degree days 352 298  
Year to date cooling degree days 1007 765  
Since 1 June cooling degree days 694 603  
Growing Degree Days 32 (Base 50)    
Moisture  
Dew Point 69 °F    
Average Humidity 69    
Maximum Humidity 93    
Minimum Humidity 44    
Precipitation  
Precipitation 0.08 in 0.16 in 2.05 in (1954)
Month to date precipitation 5.77 3.70  
Year to date precipitation 31.34 28.95  
Snow  
Snow 0.00 in 0.00 in - ()
Month to date snowfall 0.0 0.0  
Since 1 June snowfall 0.0 0.0  
Since 1 July snowfall 0.0 0.0  
Snow Depth 0.00 in    
Sea Level Pressure  
Sea Level Pressure 30.12 in    
Wind  
Wind Speed 7 mph (WSW)    
Max Wind Speed 18 mph    
Max Gust Speed 23 mph    
Visibility 9 miles    
Events Rain    
T = Trace of Precipitation, MM = Missing Value Source: NWS Daily Summary

Daily Weather History Graph

Daily Weather History Graph

Search for Another Location

Airport or City:

Trip Planner

Search our weather history database for the weather conditions in past years. The results will help you decide how hot, cold, wet, or windy it might be!

Date:

Astronomy

Jul. 22, 2012 Rise Set
Actual Time 6:36 AM EDT 8:47 PM EDT
Civil Twilight 6:07 AM EDT 9:16 PM EDT
Nautical Twilight 5:32 AM EDT 9:52 PM EDT
Astronomical Twilight 4:53 AM EDT 10:30 PM EDT
Moon 10:11 AM EDT (7/22) 10:41 PM EDT (7/22)
Length of Visible Light 15h 09m
Length of Day
14h 11m
Waxing Crescent, 13% of the Moon is Illuminated
Jul 22
Waxing Crescent
Jul 26
First Quarter
Aug 1
Full
Aug 9
Last Quarter
Aug 17
New

Hourly Weather History & Observations

Time (EDT) Temp. Heat Index Dew Point Humidity Pressure Visibility Wind Dir Wind Speed Gust Speed Precip Events Conditions
12:53 AM 77.0 °F - 73.0 °F 88% 30.06 in 10.0 mi WNW 3.5 mph - N/A   Overcast
1:53 AM 75.9 °F - 72.0 °F 87% 30.07 in 10.0 mi WSW 8.1 mph - N/A   Scattered Clouds
2:53 AM 73.0 °F - 71.1 °F 93% 30.06 in 10.0 mi SSW 4.6 mph - 0.02 in Rain Light Rain
3:53 AM 73.0 °F - 72.0 °F 96% 30.07 in 9.0 mi SW 4.6 mph - 0.06 in   Mostly Cloudy
4:53 AM 73.0 °F - 72.0 °F 96% 30.08 in 8.0 mi West 3.5 mph - N/A   Mostly Cloudy
5:26 AM 73.4 °F - 71.6 °F 94% 30.12 in 8.0 mi WSW 3.5 mph - N/A   Scattered Clouds
5:53 AM 73.0 °F - 71.1 °F 93% 30.09 in 6.0 mi WSW 3.5 mph - N/A   Scattered Clouds
6:53 AM 73.0 °F - 71.1 °F 93% 30.10 in 6.0 mi West 3.5 mph - N/A   Scattered Clouds
7:53 AM 73.9 °F - 71.1 °F 91% 30.12 in 8.0 mi SW 4.6 mph - N/A   Scattered Clouds
8:53 AM 77.0 °F - 72.0 °F 84% 30.14 in 10.0 mi SW 5.8 mph - N/A   Mostly Cloudy
9:53 AM 80.1 °F 83.8 °F 72.0 °F 76% 30.16 in 10.0 mi SW 9.2 mph - N/A   Scattered Clouds
10:53 AM 82.0 °F 86.3 °F 71.1 °F 69% 30.17 in 10.0 mi SW 6.9 mph - N/A   Scattered Clouds
11:53 AM 84.0 °F 88.4 °F 70.0 °F 63% 30.17 in 10.0 mi SW 9.2 mph - N/A   Scattered Clouds
12:53 PM 84.9 °F 89.4 °F 70.0 °F 61% 30.16 in 10.0 mi SW 11.5 mph - N/A   Scattered Clouds
1:53 PM 87.1 °F 90.6 °F 68.0 °F 53% 30.14 in 10.0 mi SW 11.5 mph - N/A   Scattered Clouds
2:53 PM 88.0 °F 90.3 °F 66.0 °F 48% 30.13 in 10.0 mi WSW 16.1 mph 19.6 mph N/A   Partly Cloudy
3:53 PM 89.1 °F 91.0 °F 64.9 °F 45% 30.12 in 10.0 mi WSW 11.5 mph - N/A   Scattered Clouds
4:53 PM 90.0 °F 91.7 °F 64.9 °F 43% 30.12 in 10.0 mi West 9.2 mph - N/A   Scattered Clouds
5:53 PM 90.0 °F 92.8 °F 66.9 °F 46% 30.10 in 10.0 mi West 8.1 mph - N/A   Scattered Clouds
6:53 PM 88.0 °F 90.3 °F 66.0 °F 48% 30.11 in 10.0 mi West 5.8 mph - N/A   Scattered Clouds
7:53 PM 87.1 °F 89.9 °F 66.9 °F 51% 30.10 in 10.0 mi WSW 5.8 mph - N/A   Scattered Clouds
8:53 PM 82.0 °F 85.5 °F 69.1 °F 65% 30.11 in 10.0 mi SSW 5.8 mph - N/A   Scattered Clouds
9:53 PM 81.0 °F 84.1 °F 69.1 °F 67% 30.14 in 10.0 mi SSW 5.8 mph - N/A   Scattered Clouds
10:53 PM 80.1 °F 82.7 °F 68.0 °F 67% 30.15 in 10.0 mi South 3.5 mph - N/A   Partly Cloudy
11:53 PM 79.0 °F - 69.1 °F 72% 30.15 in 10.0 mi SSW 4.6 mph - N/A   Partly Cloudy